Showing default

ELEKTRO-L 2, 41105

Orbit data source: Space-Track

ELEKTRO-L 2, 41105 is a Commonwealth of Independent States-origin payload satellite in GEO that was launched on Fri, 11 Dec 2015 UTC via a ZENIT-3SLBF launch vehicle from the Tyuratam Missile And Space Complex (TTMTR). Payload-class satellites include a variety of spacecraft equipped with specific instruments for various scientific and technological missions. These include communications satellites like Starlink; space stations such as the ISS; scientific satellites like the Hubble; Earth observation satellites from companies like Planet Labs, Umbra, and HawkEye 360; GPS; miniature CubeSats for education and research; and military/defense satellites.

Not visible in the next 10 days
Identifier
41105, 2015-074A
Orbit
GEO
Country
Flag of CISCIS
Related business
Manufacturer
Lavochkin
Mission
Operational Civil Weather
Bus & Motor
NAVIGATOR, Unknown motor
Mass
1,855 kg wet, 1,591 kg dry
Launch date (UTC)
2015-12-11 (10 years ago)
Launch vehicle
ZENIT-3SLBF
Launch site
Tyuratam Missile And Space Complex (TTMTR)
Object type
Payload
Rocket body
Debris
Shape & HBR
Box + 1 Pan + 1 Ant, 5.0 m
Radar Cross Section
11.105 m², Large (>1 m²)

Expand to show TLE details & history
Last TLE update: 16 hours ago

TLE from 16 hours ago
0 ELEKTRO-L 2
1 41105U 15074A   25314.93378199 -.00000119  00000-0  00000-0 0  9994
2 41105   6.1442  73.2026 0003691 191.0459 107.7939  1.00271204 36314
Epoch: 2025-11-10T22:24Z
TLE epoch observation values (Epoch: 2025-11-10T22:24:38.763Z)
Latitude
-5.36634°
Longitude
-14.28222°
Altitude
35,791.959 km
Speed
3.074 km/s
True Right ascension
00h 48m 49s
True Declination
-5° 21' 39"
Sunlit
Object was in daylight at epoch
Visualization orbit readout
Latitude
Unknown
Longitude
Unknown
Altitude
Unknown
Speed
Unknown
Apparent Right ascension
Unknown
Apparent Declination
Unknown
Sunlit
N/A
Visualization observer readout
Local Sidereal Time
10:21:02
Azimuth
Unknown
Elevation
Unknown
Doppler factor
Unknown
Orbital elements
Apogee altitude
35,803.374 km
Perigee altitude
35,772.247 km
Semi-major axis
42,165.947 km
Eccentricity
0.00037
Inclination
6.1442°
RAAN
73.2026°
Arg. of periapsis
191.0459°
True anomaly
107.83417°
Mean anomaly
107.7939°
Eccentric anomaly
107.81403°
Mean motion
0.25067 °/min
Orbital period
1,436.16 mins
BSTAR
0
Loading maneuver chart data...
Computing Atmospheric mass density...
Loading historical data...
Loading historical data...
Loading historical data...
Loading historical data...
Loading historical data...
Loading historical data...
Loading historical data...

Documentation

Showing up to 5 results
|